Temp
36 36 35 35 35 34 34 33 33 33 33 32 31 31 31 31 30 29 28 28 28 28 27 26 25 25 25 26 23 22 23 22 23 23 20 19 19 17 18 17 14 12 13 17 22 22 23 24 24 22 25 22 22 22 22 27 23 23 22 22 20 21 26
36 36 35 35 35 34 34 34 33 33 32 31 31 30 31 30 30 29 28 28 27 27 27 26 23 23 24 25 21 21 21 20 21 19 18 19 17 17 15 17 15 13 10 11 18 18 21 20 23 19 23 21 22 21 21 20 21 21 22 20 19 19 20
35 35 35 35 35 34 34 34 33 33 32 31 30 30 30 30 29 28 27 26 26 26 26 23 22 21 22 22 19 19 19 20 19 18 17 16 17 16 15 18 15 12 10 10 11 18 16 18 20 20 20 22 21 20 21 18 18 17 17 18 20 16 17
35 34 35 34 34 34 34 33 33 32 32 31 30 29 29 29 28 28 27 25 24 24 23 22 21 20 21 20 18 18 19 18 18 17 15 14 13 14 16 17 18 16 10 9 9 13 14 18 17 18 20 20 19 18 18 18 18 18 15 15 15 15 14
33 34 34 34 34 34 33 33 32 32 31 30 30 29 28 27 26 26 25 25 24 24 22 21 20 20 20 19 18 18 18 18 17 16 14 12 11 11 12 13 14 12 12 8 8 8 14 16 15 17 16 18 16 16 17 16 14 13 13 14 16 15 16
34 34 33 33 33 33 33 33 32 31 31 30 30 29 28 27 26 25 24 24 24 23 22 21 20 20 20 20 18 18 18 17 16 16 14 12 11 10 10 9 9 10 8 8 7 7 7 11 12 11 12 15 15 14 12 12 12 12 11 12 12 13 14
32 32 31 32 32 32 32 32 31 31 30 30 29 27 26 26 25 25 24 23 23 22 21 21 20 20 20 20 19 19 18 17 16 15 13 13 11 10 10 9 7 6 6 7 7 7 6 5 7 8 8 12 16 15 14 10 8 8 8 9 12 9 11
31 31 29 31 30 31 31 30 30 30 29 29 27 26 25 25 24 23 23 22 22 22 21 20 20 20 21 20 20 19 18 17 16 16 13 13 11 11 9 7 7 5 7 7 6 6 4 6 5 6 8 8 10 9 10 11 9 7 7 9 7 8 8
29 29 28 27 28 28 28 28 28 28 28 26 25 25 24 24 23 23 22 21 21 21 20 20 21 21 21 21 21 20 20 19 18 16 13 13 12 11 10 8 7 6 6 5 6 5 6 5 6 6 5 6 6 6 6 8 7 4 6 6 6 8 9
28 27 26 26 24 23 25 26 27 29 30 29 26 24 24 24 24 24 23 22 21 21 21 20 20 21 21 21 20 20 20 19 19 18 16 14 13 11 10 8 6 6 6 5 4 5 5 5 5 4 6 4 6 8 7 7 5 5 6 5 4 5 6
23 23 23 23 22 22 24 25 26 29 33 34 32 27 26 25 24 23 23 22 21 20 20 19 19 19 20 20 20 19 19 19 18 18 17 16 16 14 11 8 7 6 7 6 5 5 5 5 3 5 5 5 6 7 5 5 6 6 4 2 1 0 3
21 21 21 22 21 21 23 23 27 32 34 34 34 30 26 26 25 23 22 22 21 21 19 18 18 18 19 18 18 18 18 18 18 17 17 16 16 16 15 14 11 8 7 7 5 5 5 4 4 2 5 4 4 5 7 7 4 4 2 -1 0 2 1
20 19 20 19 19 20 20 20 27 31 33 34 34 34 28 26 24 23 22 21 20 19 18 17 17 16 17 17 18 17 16 16 16 17 17 16 16 16 16 16 17 16 11 10 7 6 5 6 4 4 5 7 6 6 3 3 2 0 0 1 3 4 4
18 17 17 18 18 19 19 18 24 29 31 32 33 34 31 24 23 22 21 21 20 19 18 17 16 15 14 15 16 15 14 14 14 14 14 14 14 13 15 16 16 16 16 15 11 10 8 8 7 7 5 8 8 4 2 -0 -1 0 1 3 4 4 5
14 14 15 15 15 16 17 17 24 28 30 31 32 33 31 23 22 21 20 20 19 19 18 17 16 16 14 14 14 15 14 13 12 12 12 12 11 12 11 12 12 13 14 14 15 13 12 12 12 11 11 9 9 7 6 5 4 4 4 5 5 3 3
13 13 14 13 12 12 14 14 23 27 28 29 31 32 26 20 20 19 19 18 18 18 18 17 17 16 15 14 13 15 16 15 13 12 10 10 10 9 9 10 13 17 17 15 14 13 13 12 12 16 13 11 8 7 7 8 8 4 3 5 4 4 4
13 13 13 12 10 11 12 11 18 25 27 28 30 30 22 19 18 18 17 17 17 16 17 17 17 16 15 15 14 16 17 18 15 11 10 9 8 8 8 7 10 17 20 21 21 21 21 21 21 21 21 21 21 16 13 10 7 5 7 5 2 2 -1
13 12 11 10 10 9 9 10 13 21 24 26 28 27 22 19 17 16 16 16 16 16 16 16 18 18 16 15 15 17 18 20 16 12 11 9 8 6 6 7 9 9 12 19 20 21 21 21 20 19 19 20 20 19 18 11 6 6 3 -3 -4 -5 -3
14 10 10 9 7 15 11 8 11 19 22 24 27 26 23 19 17 15 15 15 15 16 15 15 17 18 17 15 16 19 21 21 18 14 12 10 9 8 8 9 10 8 6 6 7 8 8 9 12 11 9 9 14 15 13 8 7 4 0 -1 -3 -3 -4
11 9 8 8 6 6 7 7 6 11 21 23 25 26 24 21 17 15 15 15 14 14 15 14 15 17 17 18 18 19 21 21 21 16 14 13 10 8 8 12 10 10 8 6 6 6 6 5 6 3 -1 0 3 5 5 3 3 3 2 -1 -3 -4 -3
8 8 8 7 6 5 5 7 6 9 19 21 23 25 24 19 17 16 15 14 14 14 13 13 13 13 17 17 18 18 20 21 21 19 16 14 12 12 12 13 9 10 12 8 6 6 5 4 3 0 -2 -3 -3 -2 -1 0 1 1 1 -0 -3 -5 -6
11 13 13 13 10 7 6 8 14 6 15 19 21 23 24 19 17 18 16 14 14 14 13 12 12 10 14 16 17 17 19 20 20 19 16 15 18 17 17 14 12 10 8 7 6 6 6 5 3 0 -1 -1 -2 -2 -2 -2 -3 -3 -4 -4 -3 -3 -5
14 13 13 14 14 11 7 6 7 15 12 16 19 21 22 22 19 21 17 15 13 14 13 13 12 13 16 16 17 18 18 19 18 17 15 18 18 17 16 16 13 11 8 7 6 6 5 5 3 1 0 -0 -1 -1 -2 -2 -4 -6 -7 -6 -7 -7 -8
14 13 12 12 13 12 10 6 4 10 14 13 16 18 21 22 21 20 15 15 13 12 12 12 12 13 16 16 17 18 18 17 16 15 16 16 15 15 15 13 11 10 9 8 7 6 5 4 4 3 2 1 0 -1 -3 -5 -9 -11 -12 -13 -12 -12 -9
15 14 13 12 12 12 11 8 4 3 10 14 13 16 18 20 19 18 17 13 11 11 10 13 15 15 16 16 16 17 16 15 15 15 15 15 14 14 10 9 9 8 8 7 6 6 5 4 5 5 2 -2 -5 -6 -7 -10 -11 -13 -13 -14 -14 -15 -13
12 11 12 12 11 10 11 8 5 3 3 10 11 12 14 17 16 15 15 14 13 13 14 15 15 15 15 14 14 12 10 9 9 13 13 13 12 4 4 4 6 6 5 4 4 3 2 2 1 -5 -6 -5 -5 -7 -9 -10 -12 -14 -14 -16 -16 -15 -12
12 11 10 9 8 8 8 6 6 4 0 1 3 4 7 10 10 12 12 10 10 11 10 11 11 10 11 10 11 11 12 11 12 9 9 7 4 1 1 3 3 5 5 3 3 1 2 1 -3 -6 -7 -8 -8 -10 -10 -9 -10 -14 -14 -14 -16 -16 -13
12 11 9 7 6 6 6 6 5 3 1 2 3 3 4 4 5 5 5 5 6 5 6 5 9 8 7 7 7 7 4 4 3 2 1 -0 -1 -1 -1 3 8 7 2 4 4 3 0 -5 -7 -7 -8 -9 -9 -9 -10 -9 -10 -12 -14 -13 -14 -15 -14
11 12 13 12 9 7 7 6 5 4 9 7 9 6 4 3 3 4 3 6 8 2 -1 -2 -3 -3 -1 -2 -1 -3 -3 -3 -3 -2 -0 -1 -1 -2 -2 -4 -4 -3 -2 1 -0 -0 -3 -5 -6 -8 -8 -8 -10 -10 -9 -11 -13 -14 -14 -15 -16 -16 -14
11 12 12 12 12 10 6 5 7 15 15 13 12 11 11 9 9 9 6 8 10 5 -3 -4 -6 -5 -4 -3 -4 -4 -4 -3 -3 -3 -3 -4 1 -1 -3 -3 -4 -5 -4 -4 -3 -3 -4 -5 -6 -7 -7 -8 -9 -11 -11 -9 -7 -14 -15 -16 -17 -17 -15
15 14 14 13 10 12 15 15 14 13 15 15 14 13 13 12 11 10 9 9 5 -1 -4 -5 -6 -5 -5 -3 -4 -4 -4 -3 -3 -3 -4 -5 -5 -6 -4 -3 -4 -4 -5 -5 -4 -3 -3 -3 -4 -5 -6 -8 -9 -9 -12 -12 -13 -14 -15 -16 -17 -17 -15
14 14 14 13 13 12 9 12 13 12 13 14 14 14 13 13 12 12 10 8 6 -5 -8 -7 -7 -7 -7 -6 -5 -4 -4 -4 -4 -4 -4 -5 -7 -6 -5 -5 -5 -4 -4 -4 -4 -4 -4 -3 -4 -4 -7 -8 -10 -11 -13 -14 -15 -16 -15 -16 -17 -15 -15
13 14 13 13 13 14 13 12 12 12 12 13 13 13 13 13 13 12 11 9 2 -6 -7 -8 -7 -6 -6 -6 -5 -5 -5 -5 -5 -4 -4 -3 -4 -5 -5 -4 -3 -2 -3 -4 -4 -4 -4 -4 -5 -6 -9 -10 -11 -12 -13 -15 -15 -16 -17 -16 -17 -16 -15
11 11 12 12 12 12 12 12 12 12 12 12 13 13 12 11 10 12 12 9 2 -2 -6 -6 -7 -6 -5 -5 -5 -5 -4 -4 -4 -4 -3 -3 -2 -2 -3 -3 -3 -4 -4 -6 -3 -3 -5 -5 -5 -8 -8 -11 -13 -14 -15 -16 -16 -17 -17 -18 -16 -17 -18
1 7 11 9 9 10 10 10 10 10 10 10 10 11 12 12 8 5 5 7 5 2 -1 -4 -4 -5 -4 -4 -4 -4 -4 -4 -5 -5 -5 -5 -5 -6 -3 -2 -4 -4 -5 -5 -6 -6 -5 -5 -6 -7 -9 -10 -13 -14 -15 -16 -17 -17 -16 -16 -17 -18 -19
1 0 6 9 8 9 8 8 8 7 7 8 9 10 10 5 4 2 1 0 1 1 2 -0 -2 -2 -3 -3 -3 -2 -2 -3 -3 -4 -3 -4 -4 -5 -6 -5 -6 -6 -6 -5 -5 -6 -5 -5 -8 -8 -10 -13 -13 -14 -12 -15 -15 -17 -16 -16 -17 -18 -18
MSLP
1017.62 1017.94 1018.26 1018.62 1018.90 1019.14 1019.46 1019.70 1019.94 1020.14 1020.34 1020.54 1020.74 1021.02 1021.22 1021.42 1021.58 1021.82 1022.10 1022.34 1022.62 1022.78 1023.10 1023.42 1023.70 1023.98 1024.22 1024.42 1024.62 1024.78 1025.02 1025.18 1025.38 1025.62 1025.90 1026.06 1026.30 1026.54 1026.66 1026.98 1027.22 1027.58 1027.54 1027.38 1027.02 1027.18 1027.14 1026.98 1027.06 1027.18 1027.02 1027.18 1027.14 1027.22 1027.22 1027.22 1027.30 1027.38 1027.50 1027.66 1027.78 1027.86 1027.86
1017.18 1017.50 1017.82 1018.14 1018.38 1018.66 1018.90 1019.10 1019.38 1019.62 1019.90 1020.10 1020.34 1020.58 1020.74 1020.90 1021.06 1021.30 1021.58 1021.86 1022.10 1022.34 1022.58 1022.94 1023.30 1023.62 1023.90 1024.06 1024.34 1024.58 1024.78 1025.02 1025.26 1025.50 1025.78 1025.94 1026.14 1026.38 1026.62 1026.70 1027.14 1027.26 1027.42 1027.70 1027.26 1027.34 1027.22 1027.38 1027.26 1027.38 1027.06 1027.18 1027.18 1027.18 1027.18 1027.22 1027.30 1027.38 1027.46 1027.58 1027.66 1027.74 1027.74
1016.78 1017.02 1017.34 1017.58 1017.86 1018.14 1018.42 1018.62 1018.94 1019.18 1019.42 1019.62 1019.82 1020.02 1020.18 1020.34 1020.54 1020.74 1021.06 1021.30 1021.46 1021.74 1022.10 1022.54 1022.90 1023.22 1023.54 1023.86 1024.18 1024.38 1024.66 1024.86 1025.14 1025.38 1025.66 1025.90 1026.06 1026.38 1026.54 1026.66 1026.86 1027.22 1027.38 1027.42 1027.62 1027.22 1027.54 1027.38 1027.42 1027.38 1027.38 1027.22 1027.26 1027.30 1027.34 1027.38 1027.34 1027.34 1027.38 1027.42 1027.50 1027.54 1027.58
1016.42 1016.70 1016.90 1017.14 1017.42 1017.66 1017.90 1018.22 1018.50 1018.78 1018.98 1019.14 1019.42 1019.62 1019.82 1019.98 1020.14 1020.30 1020.50 1020.70 1021.02 1021.34 1021.70 1021.98 1022.46 1022.86 1023.18 1023.50 1023.94 1024.26 1024.54 1024.74 1025.02 1025.30 1025.58 1025.86 1026.14 1026.42 1026.62 1026.78 1026.86 1027.02 1027.30 1027.50 1027.66 1027.42 1027.42 1027.42 1027.38 1027.38 1027.30 1027.42 1027.42 1027.46 1027.42 1027.34 1027.34 1027.30 1027.30 1027.34 1027.38 1027.38 1027.42
1016.10 1016.30 1016.54 1016.74 1016.94 1017.22 1017.46 1017.70 1018.02 1018.26 1018.50 1018.74 1018.98 1019.22 1019.42 1019.58 1019.74 1019.94 1020.14 1020.38 1020.62 1020.90 1021.22 1021.62 1021.90 1022.38 1022.78 1023.18 1023.66 1024.10 1024.38 1024.70 1024.98 1025.30 1025.62 1025.94 1026.14 1026.46 1026.66 1026.86 1027.02 1027.22 1027.30 1027.58 1027.66 1027.78 1027.46 1027.46 1027.50 1027.42 1027.54 1027.46 1027.54 1027.46 1027.42 1027.38 1027.34 1027.30 1027.30 1027.26 1027.18 1027.18 1027.14
1015.78 1015.94 1016.14 1016.34 1016.54 1016.78 1016.98 1017.26 1017.50 1017.70 1017.94 1018.22 1018.54 1018.82 1019.02 1019.18 1019.38 1019.62 1019.86 1020.14 1020.38 1020.62 1020.94 1021.26 1021.62 1022.02 1022.38 1022.78 1023.22 1023.66 1024.10 1024.46 1024.86 1025.22 1025.58 1025.90 1026.18 1026.46 1026.70 1026.94 1027.18 1027.34 1027.58 1027.62 1027.82 1027.86 1027.98 1027.66 1027.74 1027.78 1027.70 1027.66 1027.66 1027.74 1027.70 1027.58 1027.42 1027.26 1027.22 1027.18 1027.14 1027.06 1026.98
1015.58 1015.70 1015.86 1016.02 1016.26 1016.42 1016.58 1016.82 1017.02 1017.30 1017.54 1017.86 1018.14 1018.38 1018.62 1018.90 1019.18 1019.46 1019.70 1019.90 1020.14 1020.38 1020.74 1021.06 1021.38 1021.74 1022.02 1022.34 1022.78 1023.22 1023.74 1024.22 1024.74 1025.06 1025.46 1025.74 1026.06 1026.38 1026.66 1026.98 1027.26 1027.42 1027.62 1027.78 1027.86 1027.90 1027.86 1028.06 1027.94 1027.90 1028.10 1027.82 1027.78 1027.74 1027.66 1027.62 1027.54 1027.38 1027.22 1027.10 1026.98 1026.98 1026.86
1015.38 1015.50 1015.66 1015.78 1015.94 1016.10 1016.26 1016.46 1016.70 1016.94 1017.18 1017.42 1017.66 1017.98 1018.26 1018.54 1018.86 1019.18 1019.46 1019.74 1019.98 1020.18 1020.42 1020.74 1021.06 1021.34 1021.62 1021.94 1022.42 1022.82 1023.38 1023.82 1024.42 1024.86 1025.38 1025.70 1026.02 1026.30 1026.66 1026.98 1027.30 1027.50 1027.70 1027.82 1027.86 1027.82 1027.98 1027.86 1027.94 1027.94 1027.74 1027.78 1027.78 1027.78 1027.54 1027.34 1027.38 1027.46 1027.34 1027.10 1026.86 1026.82 1026.98
1015.34 1015.42 1015.50 1015.66 1015.78 1015.90 1016.06 1016.22 1016.42 1016.62 1016.86 1017.14 1017.38 1017.66 1017.94 1018.22 1018.50 1018.78 1019.14 1019.42 1019.70 1019.94 1020.22 1020.58 1020.86 1021.10 1021.42 1021.74 1022.18 1022.54 1022.98 1023.46 1023.90 1024.46 1025.14 1025.54 1025.86 1026.30 1026.62 1027.02 1027.30 1027.54 1027.70 1027.78 1027.78 1027.86 1027.62 1027.82 1027.82 1027.70 1027.86 1027.90 1027.66 1027.54 1027.46 1027.30 1027.10 1027.22 1027.06 1027.02 1026.94 1026.82 1026.74
1015.34 1015.42 1015.50 1015.62 1015.78 1015.86 1015.98 1016.06 1016.22 1016.30 1016.42 1016.62 1016.94 1017.30 1017.58 1017.86 1018.06 1018.38 1018.70 1019.10 1019.50 1019.82 1020.10 1020.42 1020.70 1021.02 1021.26 1021.62 1021.98 1022.42 1022.82 1023.26 1023.66 1024.02 1024.42 1025.02 1025.46 1026.02 1026.42 1026.78 1027.14 1027.34 1027.42 1027.62 1027.70 1027.50 1027.58 1027.62 1027.42 1027.50 1027.34 1027.42 1027.30 1027.14 1027.06 1027.02 1027.02 1027.06 1026.94 1026.90 1026.98 1026.94 1026.82
1015.62 1015.62 1015.66 1015.78 1015.86 1015.94 1016.02 1016.06 1016.10 1016.10 1016.10 1016.18 1016.42 1016.86 1017.18 1017.42 1017.74 1018.06 1018.38 1018.70 1019.06 1019.46 1019.94 1020.34 1020.66 1021.02 1021.30 1021.62 1021.98 1022.30 1022.66 1023.06 1023.46 1023.86 1024.26 1024.70 1024.98 1025.38 1025.82 1026.38 1026.70 1026.98 1026.98 1027.18 1027.14 1027.22 1027.22 1027.14 1027.26 1027.06 1026.94 1026.94 1026.94 1026.86 1026.90 1026.90 1026.90 1026.86 1026.86 1026.98 1027.10 1027.38 1026.78
1016.06 1016.02 1016.02 1016.02 1016.06 1016.14 1016.14 1016.14 1016.10 1016.02 1015.94 1015.90 1015.94 1016.26 1016.70 1017.02 1017.34 1017.74 1018.06 1018.38 1018.74 1019.18 1019.70 1020.18 1020.62 1020.94 1021.22 1021.54 1021.82 1022.14 1022.50 1022.90 1023.22 1023.62 1023.98 1024.38 1024.70 1025.02 1025.30 1025.54 1025.86 1026.30 1026.58 1026.66 1026.86 1026.86 1026.74 1026.78 1026.74 1026.82 1026.62 1026.74 1026.62 1026.78 1026.70 1026.66 1026.74 1026.78 1026.90 1027.10 1027.14 1027.10 1027.14
1016.46 1016.42 1016.38 1016.42 1016.38 1016.30 1016.26 1016.22 1016.14 1016.02 1015.86 1015.74 1015.66 1015.74 1016.18 1016.62 1016.90 1017.30 1017.66 1018.02 1018.46 1018.90 1019.42 1019.94 1020.38 1020.82 1021.18 1021.38 1021.62 1021.94 1022.30 1022.70 1023.06 1023.38 1023.74 1024.10 1024.42 1024.66 1024.90 1025.06 1025.22 1025.42 1025.70 1025.98 1026.18 1026.34 1026.50 1026.26 1026.54 1026.46 1026.42 1026.30 1026.42 1026.30 1026.54 1026.50 1026.58 1026.62 1026.74 1026.78 1026.94 1026.86 1026.82
1016.74 1016.74 1016.74 1016.70 1016.62 1016.54 1016.42 1016.34 1016.22 1016.06 1015.82 1015.66 1015.54 1015.50 1015.70 1016.22 1016.62 1016.98 1017.34 1017.70 1018.14 1018.58 1019.10 1019.50 1019.98 1020.50 1021.02 1021.26 1021.46 1021.78 1022.18 1022.54 1022.90 1023.22 1023.58 1023.86 1024.10 1024.34 1024.50 1024.66 1024.82 1024.94 1025.06 1025.30 1025.50 1025.62 1025.70 1025.78 1025.86 1026.10 1026.02 1025.98 1025.94 1026.14 1026.26 1026.34 1026.46 1026.42 1026.54 1026.62 1026.58 1026.42 1026.38
1016.98 1016.94 1016.90 1016.86 1016.82 1016.74 1016.58 1016.46 1016.30 1016.02 1015.82 1015.58 1015.42 1015.38 1015.50 1016.06 1016.50 1016.90 1017.22 1017.58 1017.90 1018.26 1018.70 1019.18 1019.66 1020.06 1020.46 1020.90 1021.26 1021.46 1021.86 1022.30 1022.70 1023.10 1023.38 1023.62 1023.82 1023.94 1024.14 1024.30 1024.46 1024.62 1024.74 1024.78 1024.74 1024.86 1024.98 1025.26 1025.38 1025.50 1025.62 1025.70 1025.70 1025.70 1025.86 1025.90 1026.02 1026.06 1026.18 1026.26 1026.26 1026.26 1026.22
1017.02 1016.98 1016.94 1016.94 1016.90 1016.86 1016.66 1016.50 1016.34 1016.06 1015.78 1015.58 1015.38 1015.26 1015.70 1016.30 1016.58 1016.86 1017.22 1017.58 1017.94 1018.26 1018.58 1018.94 1019.34 1019.74 1020.14 1020.54 1020.90 1021.14 1021.46 1021.82 1022.30 1022.74 1023.06 1023.30 1023.50 1023.70 1023.86 1023.94 1023.94 1024.10 1024.18 1024.30 1024.34 1024.38 1024.50 1024.70 1024.86 1024.94 1025.02 1025.14 1025.22 1025.30 1025.42 1025.50 1025.58 1025.86 1026.06 1026.18 1026.22 1026.14 1025.98
1017.02 1016.94 1016.94 1016.90 1016.86 1016.86 1016.74 1016.58 1016.38 1016.14 1015.86 1015.62 1015.42 1015.26 1015.86 1016.46 1016.78 1016.94 1017.26 1017.58 1017.90 1018.22 1018.46 1018.74 1019.02 1019.30 1019.70 1020.06 1020.46 1020.70 1020.98 1021.34 1021.82 1022.30 1022.54 1022.82 1023.06 1023.30 1023.54 1023.66 1023.74 1023.66 1023.54 1023.46 1023.46 1023.54 1023.70 1023.82 1023.90 1023.98 1023.98 1023.90 1023.94 1024.26 1024.62 1025.02 1025.38 1025.46 1025.58 1025.86 1025.86 1025.74 1025.62
1016.98 1016.90 1016.86 1016.86 1016.90 1016.90 1016.82 1016.62 1016.50 1016.34 1016.02 1015.74 1015.50 1015.34 1015.82 1016.42 1016.78 1016.98 1017.18 1017.58 1017.82 1018.10 1018.38 1018.58 1018.74 1018.98 1019.34 1019.62 1019.98 1020.22 1020.50 1020.66 1021.22 1021.74 1021.98 1022.30 1022.62 1022.98 1023.18 1023.26 1023.42 1023.58 1023.42 1023.30 1023.18 1023.02 1022.98 1023.06 1023.26 1023.46 1023.58 1023.62 1023.62 1023.70 1023.86 1024.22 1024.62 1024.62 1025.02 1025.34 1025.42 1025.78 1025.58
1016.74 1016.70 1016.66 1016.74 1016.78 1016.78 1016.78 1016.66 1016.54 1016.38 1016.18 1015.90 1015.62 1015.42 1015.66 1016.22 1016.54 1016.86 1017.06 1017.38 1017.74 1017.94 1018.26 1018.46 1018.54 1018.74 1019.06 1019.38 1019.66 1019.82 1019.98 1020.10 1020.50 1021.06 1021.46 1021.90 1022.18 1022.38 1022.50 1022.50 1022.82 1023.06 1023.38 1023.50 1023.54 1023.50 1023.50 1023.38 1023.38 1023.50 1023.74 1023.90 1023.82 1023.74 1023.66 1023.74 1024.06 1024.42 1024.70 1025.02 1025.26 1025.46 1025.74
1016.58 1016.54 1016.62 1016.66 1016.78 1016.78 1016.74 1016.70 1016.62 1016.50 1016.26 1015.98 1015.74 1015.46 1015.46 1015.82 1016.14 1016.46 1016.74 1017.02 1017.42 1017.70 1017.94 1018.18 1018.34 1018.54 1018.78 1019.06 1019.38 1019.50 1019.58 1019.74 1019.98 1020.42 1020.82 1021.14 1021.50 1021.78 1021.90 1021.94 1022.26 1022.42 1022.82 1023.10 1023.22 1023.30 1023.42 1023.50 1023.54 1023.66 1023.82 1023.90 1023.82 1023.82 1023.94 1024.14 1024.30 1024.42 1024.58 1024.86 1025.14 1025.34 1025.42
1016.58 1016.58 1016.58 1016.54 1016.62 1016.70 1016.70 1016.66 1016.66 1016.54 1016.30 1016.02 1015.78 1015.54 1015.34 1015.70 1015.86 1016.06 1016.38 1016.74 1017.06 1017.30 1017.62 1017.90 1018.18 1018.34 1018.50 1018.78 1019.06 1019.34 1019.38 1019.46 1019.58 1019.90 1020.34 1020.62 1020.90 1020.98 1021.14 1021.46 1021.78 1021.94 1022.10 1022.50 1022.74 1022.94 1023.10 1023.22 1023.34 1023.54 1023.74 1023.86 1023.90 1023.94 1024.06 1024.14 1024.30 1024.38 1024.50 1024.66 1024.90 1025.10 1025.22
1016.54 1016.54 1016.46 1016.34 1016.34 1016.46 1016.50 1016.50 1016.46 1016.50 1016.38 1016.14 1015.86 1015.58 1015.26 1015.54 1015.78 1015.82 1016.18 1016.54 1016.82 1017.10 1017.42 1017.74 1018.06 1018.34 1018.50 1018.74 1018.94 1019.18 1019.30 1019.38 1019.54 1019.74 1019.98 1020.18 1020.26 1020.42 1020.62 1020.86 1021.10 1021.46 1021.66 1021.94 1022.26 1022.46 1022.58 1022.78 1023.02 1023.26 1023.54 1023.62 1023.70 1023.82 1023.98 1024.06 1024.18 1024.30 1024.42 1024.50 1024.58 1024.70 1024.90
1016.34 1016.38 1016.34 1016.26 1016.10 1016.14 1016.30 1016.34 1016.34 1016.30 1016.34 1016.18 1015.94 1015.62 1015.38 1015.34 1015.66 1015.62 1016.02 1016.26 1016.58 1016.78 1017.18 1017.46 1017.86 1018.14 1018.34 1018.58 1018.82 1018.98 1019.14 1019.26 1019.42 1019.62 1019.82 1019.90 1020.02 1020.14 1020.26 1020.38 1020.54 1020.82 1021.18 1021.46 1021.62 1021.82 1021.98 1022.18 1022.50 1022.86 1023.02 1023.18 1023.34 1023.46 1023.70 1023.86 1024.06 1024.18 1024.34 1024.50 1024.66 1024.82 1024.90
1016.02 1016.14 1016.14 1016.10 1015.98 1015.86 1016.02 1016.18 1016.30 1016.30 1016.22 1016.22 1016.10 1015.78 1015.50 1015.26 1015.46 1015.54 1015.94 1016.14 1016.46 1016.74 1017.10 1017.42 1017.74 1017.98 1018.14 1018.42 1018.58 1018.74 1018.90 1019.02 1019.26 1019.46 1019.62 1019.70 1019.86 1020.06 1020.14 1020.22 1020.30 1020.42 1020.58 1020.82 1021.02 1021.18 1021.38 1021.66 1021.90 1022.18 1022.46 1022.58 1022.74 1023.06 1023.42 1023.74 1023.98 1024.22 1024.46 1024.62 1024.74 1024.86 1024.98
1015.78 1015.78 1015.74 1015.74 1015.70 1015.66 1015.66 1015.90 1016.14 1016.30 1016.26 1016.22 1016.22 1016.02 1015.74 1015.54 1015.62 1015.74 1016.02 1016.42 1016.66 1016.86 1017.06 1017.34 1017.58 1017.82 1018.02 1018.22 1018.34 1018.50 1018.66 1018.86 1019.06 1019.18 1019.34 1019.54 1019.70 1019.94 1020.22 1020.26 1020.30 1020.30 1020.34 1020.46 1020.54 1020.62 1020.82 1021.14 1021.30 1021.42 1021.70 1022.30 1022.86 1023.34 1023.66 1023.90 1024.18 1024.38 1024.58 1024.78 1024.86 1024.90 1024.90
1015.78 1015.74 1015.62 1015.54 1015.50 1015.46 1015.42 1015.62 1015.98 1016.14 1016.30 1016.30 1016.30 1016.26 1016.06 1015.86 1016.02 1016.22 1016.38 1016.54 1016.74 1016.90 1017.06 1017.30 1017.50 1017.70 1017.90 1018.10 1018.26 1018.46 1018.62 1018.82 1018.94 1019.06 1019.22 1019.38 1019.58 1019.98 1020.14 1020.26 1020.34 1020.30 1020.26 1020.30 1020.34 1020.54 1020.70 1020.90 1021.14 1021.70 1022.38 1022.78 1023.02 1023.18 1023.34 1023.58 1023.78 1024.06 1024.26 1024.50 1024.54 1024.50 1024.46
1015.70 1015.62 1015.54 1015.46 1015.42 1015.38 1015.34 1015.54 1015.86 1016.10 1016.26 1016.38 1016.42 1016.42 1016.38 1016.22 1016.22 1016.34 1016.58 1016.86 1016.98 1017.10 1017.30 1017.46 1017.62 1017.82 1018.02 1018.22 1018.30 1018.42 1018.54 1018.66 1018.78 1018.98 1019.10 1019.26 1019.50 1019.78 1019.98 1020.10 1020.18 1020.18 1020.18 1020.22 1020.26 1020.38 1020.54 1020.74 1021.62 1022.34 1022.58 1022.70 1022.82 1022.90 1023.26 1023.46 1023.62 1023.86 1023.98 1024.18 1024.34 1024.42 1024.26
1015.82 1015.62 1015.46 1015.42 1015.30 1015.26 1015.26 1015.26 1015.62 1015.90 1016.10 1016.26 1016.38 1016.42 1016.42 1016.46 1016.46 1016.42 1016.54 1016.78 1017.02 1017.26 1017.42 1017.62 1017.74 1017.86 1017.98 1018.14 1018.30 1018.42 1018.58 1018.70 1018.86 1019.02 1019.18 1019.34 1019.54 1019.70 1019.82 1019.90 1019.94 1019.94 1019.94 1019.94 1020.02 1020.14 1020.58 1021.50 1021.90 1021.98 1022.10 1022.42 1022.50 1022.58 1022.90 1023.34 1023.58 1023.62 1023.74 1023.94 1024.10 1024.10 1023.86
1016.26 1015.98 1015.70 1015.50 1015.38 1015.22 1015.14 1015.02 1015.18 1015.34 1015.50 1015.78 1015.90 1016.14 1016.30 1016.42 1016.42 1016.46 1016.54 1016.58 1016.78 1017.10 1017.34 1017.58 1017.78 1017.98 1018.10 1018.22 1018.42 1018.58 1018.70 1018.82 1018.98 1019.10 1019.18 1019.38 1019.50 1019.66 1019.74 1019.82 1019.90 1019.90 1019.78 1019.70 1019.78 1020.06 1020.62 1021.14 1021.58 1021.70 1021.98 1022.14 1022.42 1022.66 1022.86 1023.18 1023.34 1023.46 1023.58 1023.82 1023.94 1023.86 1023.78
1016.38 1016.14 1015.98 1015.82 1015.62 1015.46 1015.42 1015.18 1015.10 1014.98 1015.06 1015.34 1015.54 1015.74 1015.86 1016.02 1016.18 1016.30 1016.42 1016.50 1016.58 1016.86 1017.30 1017.50 1017.82 1017.94 1018.10 1018.26 1018.46 1018.62 1018.74 1018.86 1018.98 1019.06 1019.14 1019.18 1019.26 1019.46 1019.66 1019.70 1019.74 1019.78 1019.74 1019.70 1019.70 1020.02 1020.54 1020.94 1021.22 1021.46 1021.66 1021.90 1022.06 1022.42 1022.70 1022.86 1022.98 1023.22 1023.46 1023.62 1023.62 1023.62 1023.62
1016.10 1016.02 1015.98 1015.86 1015.74 1015.42 1015.26 1015.14 1015.14 1015.18 1015.02 1015.02 1015.22 1015.38 1015.54 1015.74 1015.86 1016.06 1016.26 1016.42 1016.70 1016.98 1017.34 1017.54 1017.78 1017.98 1018.06 1018.22 1018.26 1018.42 1018.54 1018.66 1018.74 1018.82 1018.90 1019.02 1019.10 1019.26 1019.46 1019.54 1019.66 1019.70 1019.74 1019.74 1019.82 1019.98 1020.26 1020.54 1020.78 1020.98 1021.34 1021.58 1021.90 1022.06 1022.34 1022.58 1022.86 1023.06 1023.26 1023.30 1023.38 1023.42 1023.34
1016.10 1015.90 1015.82 1015.74 1015.58 1015.38 1015.34 1015.26 1015.30 1015.42 1015.30 1015.18 1015.14 1015.18 1015.30 1015.46 1015.62 1015.82 1016.06 1016.42 1016.62 1017.14 1017.30 1017.54 1017.70 1017.86 1017.94 1017.98 1018.10 1018.10 1018.18 1018.26 1018.38 1018.46 1018.58 1018.74 1018.98 1019.18 1019.34 1019.46 1019.54 1019.58 1019.62 1019.70 1019.82 1019.90 1020.10 1020.30 1020.54 1020.78 1021.06 1021.34 1021.58 1021.86 1022.02 1022.26 1022.62 1022.86 1022.98 1023.06 1023.22 1023.18 1023.10
1016.10 1015.78 1015.66 1015.58 1015.50 1015.34 1015.10 1015.10 1015.10 1015.14 1015.18 1015.18 1015.18 1015.18 1015.26 1015.30 1015.34 1015.50 1015.70 1016.06 1016.62 1017.06 1017.22 1017.42 1017.62 1017.74 1017.74 1017.70 1017.74 1017.78 1017.82 1017.94 1017.98 1018.14 1018.26 1018.38 1018.54 1018.86 1019.02 1019.18 1019.18 1019.26 1019.46 1019.54 1019.62 1019.78 1019.94 1020.14 1020.34 1020.58 1020.78 1021.02 1021.30 1021.50 1021.70 1021.98 1022.18 1022.46 1022.66 1022.78 1022.82 1022.82 1022.86
1016.34 1016.10 1015.78 1015.58 1015.50 1015.42 1015.34 1015.22 1015.14 1015.10 1015.06 1015.02 1014.98 1015.02 1015.10 1015.22 1015.38 1015.38 1015.38 1015.66 1016.30 1016.66 1017.06 1017.18 1017.30 1017.38 1017.42 1017.38 1017.38 1017.42 1017.46 1017.58 1017.66 1017.74 1017.82 1017.90 1017.98 1018.22 1018.50 1018.70 1018.90 1019.18 1019.26 1019.38 1019.46 1019.58 1019.78 1019.94 1020.14 1020.38 1020.58 1020.78 1021.02 1021.30 1021.50 1021.70 1021.82 1022.02 1022.14 1022.26 1022.30 1022.30 1022.34
1016.38 1016.18 1015.94 1015.70 1015.58 1015.66 1015.62 1015.58 1015.54 1015.42 1015.34 1015.26 1015.18 1015.06 1014.94 1015.02 1015.22 1015.42 1015.46 1015.42 1015.74 1016.14 1016.50 1016.82 1016.90 1016.98 1016.94 1017.02 1017.02 1017.06 1017.10 1017.22 1017.30 1017.42 1017.50 1017.54 1017.58 1017.62 1017.94 1018.34 1018.66 1018.86 1019.02 1019.18 1019.34 1019.46 1019.58 1019.70 1019.90 1020.14 1020.30 1020.54 1020.82 1021.14 1021.30 1021.38 1021.58 1021.70 1021.78 1021.86 1021.94 1022.02 1022.02
1016.46 1016.30 1016.10 1015.90 1015.86 1015.78 1015.74 1015.70 1015.70 1015.70 1015.62 1015.54 1015.34 1015.18 1015.10 1015.10 1014.98 1015.18 1015.30 1015.38 1015.38 1015.62 1015.86 1016.14 1016.38 1016.50 1016.58 1016.54 1016.58 1016.62 1016.74 1016.82 1016.94 1017.06 1017.18 1017.26 1017.34 1017.38 1017.66 1018.14 1018.42 1018.66 1018.86 1018.98 1019.10 1019.18 1019.26 1019.46 1019.70 1019.90 1020.14 1020.42 1020.62 1020.70 1020.78 1021.06 1021.22 1021.38 1021.54 1021.66 1021.70 1021.78 1021.78
Wind_Speed
10 11 11 12 12 12 12 12 12 12 12 12 12 11 11 10 11 12 10 10 10 9 9 11 10 10 9 8 7 6 6 6 6 6 4 4 4 4 4 5 5 7 7 4 2 2 3 5 4 3 1 2 3 2 3 4 3 2 1 1 1 1 7
8 9 11 11 12 12 12 13 13 12 11 12 12 12 10 11 12 12 12 11 11 11 10 10 10 10 10 9 7 6 6 6 6 5 5 5 4 4 4 3 6 5 4 6 2 3 3 2 3 4 4 3 4 3 3 2 1 1 1 1 2 3 4
8 9 10 11 12 12 12 13 12 12 12 13 13 14 12 12 13 13 13 13 13 13 11 10 10 10 9 6 8 6 6 6 6 5 6 4 4 4 3 3 3 4 5 4 4 2 3 3 3 5 4 5 2 1 1 2 3 2 2 2 3 3 2
7 8 10 11 11 12 12 12 11 11 12 13 13 13 13 12 13 13 13 13 12 11 11 12 10 10 10 8 9 6 6 5 6 6 5 5 2 3 3 1 1 2 2 3 3 3 3 4 3 4 1 2 3 3 5 4 3 3 3 4 3 3 4
5 7 8 10 11 11 11 11 11 12 12 12 12 12 13 12 12 12 12 12 12 12 12 12 12 11 10 9 10 7 8 6 6 5 5 5 3 2 1 0 1 2 2 2 4 3 2 1 2 1 2 3 3 5 4 3 4 3 4 4 4 4 3
6 6 7 8 9 9 10 10 11 12 13 12 12 12 12 11 11 11 11 11 10 11 10 12 11 11 11 11 11 10 8 7 8 6 6 5 5 4 3 1 1 1 2 3 4 3 3 3 2 3 3 1 3 5 6 5 5 5 4 4 5 4 3
6 5 6 7 7 8 9 10 10 11 11 11 12 11 11 11 10 10 9 9 10 9 9 10 10 11 11 12 11 11 10 9 8 7 7 7 6 5 4 4 3 3 3 4 5 5 3 3 3 2 4 4 5 7 6 5 4 4 3 3 5 4 2
6 5 5 6 6 7 7 8 8 9 9 10 10 10 10 10 10 10 9 8 9 9 9 10 11 11 11 12 11 12 10 11 9 7 8 6 6 5 5 5 4 3 4 5 5 6 5 4 4 3 4 3 4 6 6 4 4 7 5 6 2 1 1
5 5 5 5 5 5 5 6 7 7 8 9 9 9 10 10 11 11 10 9 9 9 9 9 10 11 10 11 11 11 11 10 10 9 8 6 7 6 6 5 4 5 5 5 5 6 4 4 6 5 4 6 6 6 6 4 4 3 2 3 4 5 4
3 3 4 4 5 4 4 5 5 8 13 12 10 9 10 10 11 11 11 11 10 9 9 9 9 9 12 12 12 13 13 14 14 12 9 9 8 8 7 6 6 6 6 6 7 7 5 7 7 6 6 5 5 5 4 3 4 4 4 3 4 3 3
3 4 3 3 4 5 5 4 4 8 11 14 16 11 10 11 11 11 11 11 11 11 10 9 9 8 11 12 12 12 15 14 15 14 12 13 11 10 10 8 8 8 7 7 7 6 6 7 7 6 5 5 5 4 3 4 4 5 3 3 4 6 2
5 4 4 4 5 5 5 5 6 9 12 15 17 16 11 10 10 10 11 10 11 10 9 10 9 8 9 10 11 11 11 13 15 15 14 14 13 14 14 13 11 9 7 8 8 8 7 5 7 5 5 5 3 5 5 5 3 2 2 3 4 4 4
5 5 5 5 5 6 5 5 7 10 13 15 18 19 15 9 11 11 11 11 11 11 10 10 9 9 8 8 13 10 10 10 11 13 15 14 15 15 16 16 17 15 10 8 8 8 9 8 5 6 5 5 5 4 4 4 4 3 3 3 5 5 5
5 5 5 5 6 6 6 6 7 11 14 16 18 19 16 10 11 10 11 12 12 11 11 11 11 10 9 8 10 9 10 10 9 9 9 10 9 9 13 17 18 19 20 14 10 10 10 7 5 7 4 5 4 4 4 4 5 4 5 5 7 5 5
4 4 4 5 5 6 6 6 8 12 15 17 18 20 15 8 9 8 9 10 10 11 11 11 10 11 10 10 10 9 11 10 10 9 8 8 9 9 8 8 9 10 10 12 12 10 10 9 9 8 7 6 6 6 6 6 6 7 6 6 5 5 4
4 4 5 5 5 5 7 6 9 12 14 17 17 20 7 6 8 9 8 8 8 9 9 10 10 10 10 10 10 12 17 14 10 10 10 10 9 8 8 8 9 14 15 13 11 10 9 7 7 12 10 9 8 7 7 6 6 4 4 6 8 9 4
4 4 4 5 5 5 6 6 7 11 14 15 16 15 4 6 6 7 8 8 8 8 8 9 10 9 9 10 10 14 19 19 15 10 11 10 10 9 8 9 7 16 21 22 23 24 24 25 25 25 25 26 26 17 12 8 7 8 6 8 8 6 4
4 4 4 4 5 4 5 6 5 8 12 14 15 12 5 7 7 7 8 7 7 7 7 9 16 12 9 9 9 16 20 20 16 11 12 11 11 11 10 9 7 6 10 19 21 23 24 24 23 23 21 21 21 21 18 9 10 6 7 7 4 5 3
5 4 3 2 3 5 5 5 5 6 11 13 14 12 4 7 7 8 7 7 7 7 7 7 10 15 11 10 10 17 19 19 15 10 10 11 11 12 12 10 8 9 8 7 7 8 8 10 11 10 6 1 4 6 1 5 7 6 6 6 5 4 3
3 2 3 1 2 3 3 4 4 3 10 12 14 16 7 5 7 7 8 8 8 7 7 7 7 11 16 16 15 17 19 18 18 10 7 7 8 10 13 8 8 9 8 8 8 9 7 8 7 7 3 2 3 3 3 3 4 4 5 5 6 5 6
4 4 4 4 4 4 4 4 5 5 9 12 13 15 14 4 6 6 7 7 8 7 7 6 7 5 11 16 16 15 17 17 17 14 8 8 8 9 9 8 8 10 13 9 8 9 8 7 7 6 5 4 4 4 4 4 5 6 6 7 7 6 6
4 5 5 4 5 4 5 5 5 5 7 11 13 14 17 5 5 7 7 7 7 7 6 6 7 6 10 13 14 14 16 17 16 17 9 8 14 16 16 11 8 8 8 8 7 8 8 8 6 6 6 6 6 6 7 6 6 5 6 6 6 7 6
6 6 6 6 5 4 5 5 4 7 6 10 12 14 15 11 7 12 7 7 7 7 7 6 6 7 12 13 14 15 16 15 17 13 9 16 17 16 18 14 7 7 8 8 8 8 8 8 8 7 7 7 7 7 6 7 6 5 4 3 2 1 3
5 5 6 6 5 4 4 4 4 5 8 7 10 11 12 12 9 12 6 6 6 5 6 6 6 7 13 14 14 14 13 14 13 9 14 15 15 15 14 8 6 5 7 9 9 9 8 8 8 7 7 7 7 7 7 6 5 4 3 3 2 2 3
6 6 5 5 5 5 5 5 5 4 5 9 9 10 10 9 3 8 9 4 3 6 5 7 9 10 11 11 11 12 13 12 13 16 15 14 13 9 1 3 4 5 4 6 8 9 8 7 8 8 6 5 6 5 5 4 1 1 1 1 1 3 3
5 5 6 5 5 5 5 5 5 5 4 4 6 6 8 7 4 7 8 7 5 7 8 9 8 8 8 8 8 6 4 3 5 9 13 13 10 2 3 2 4 4 5 6 5 5 6 6 5 4 5 6 6 7 6 4 3 2 3 1 2 3 6
6 5 5 6 5 5 4 3 4 5 3 3 3 3 3 4 1 5 7 6 5 6 5 5 5 3 5 4 7 9 8 8 8 7 8 6 4 4 4 4 4 5 5 5 5 5 6 4 5 5 7 5 6 6 4 5 4 4 5 3 3 3 6
7 5 5 6 5 5 5 5 5 5 6 5 5 4 4 3 3 3 4 5 5 5 5 5 4 5 3 3 4 6 4 3 2 4 4 5 5 6 5 6 6 5 5 6 6 5 4 5 6 7 6 5 4 4 3 4 5 5 4 3 2 1 5
8 8 7 5 4 4 5 3 4 6 8 8 8 7 5 5 6 5 4 5 6 5 3 4 2 2 3 4 5 4 4 5 4 4 4 4 5 6 6 6 5 7 6 6 6 6 7 7 6 6 5 5 5 5 6 4 5 4 6 2 2 5 6
8 8 7 7 6 4 3 4 1 3 7 11 10 11 10 9 8 7 5 6 8 6 3 3 5 4 6 5 5 5 5 6 5 6 6 6 6 6 6 7 7 7 6 4 6 6 7 7 6 6 6 6 6 5 5 5 6 4 4 4 5 6 6
14 14 14 10 7 7 9 8 4 3 6 8 9 10 10 9 9 9 9 8 6 3 5 4 5 5 5 5 5 6 6 6 6 6 6 6 6 6 7 7 6 6 5 5 5 5 6 6 6 6 6 6 6 6 6 5 4 5 5 6 6 6 6
15 14 13 13 12 8 3 7 7 4 6 7 7 8 10 10 10 10 10 9 8 4 4 6 6 6 6 6 6 7 6 6 6 6 6 6 5 6 5 6 6 6 6 6 6 6 5 6 6 6 7 7 7 6 6 6 6 6 6 6 5 6 6
15 13 12 11 12 13 11 8 8 9 9 10 11 11 10 10 11 11 11 13 7 5 5 5 5 6 5 6 6 6 6 6 6 6 6 6 6 6 6 7 7 6 6 6 7 7 6 6 6 6 6 6 7 7 6 7 7 7 6 6 5 6 7
11 14 15 12 11 10 9 10 11 11 8 9 12 12 11 11 8 11 12 10 7 6 6 6 6 6 6 6 6 6 6 6 6 6 6 6 6 7 7 8 6 6 7 6 7 7 6 6 6 5 7 6 6 6 6 7 7 5 6 6 6 6 6
5 8 11 8 6 5 7 7 9 11 11 11 9 7 10 11 7 7 6 7 5 6 7 7 7 6 6 6 6 6 6 6 6 6 6 6 6 5 6 6 6 7 7 7 6 6 6 6 7 7 6 7 7 6 6 7 6 6 7 6 5 6 5
5 5 8 10 6 6 7 8 8 9 9 10 12 11 10 6 5 6 6 6 6 5 7 7 7 7 7 7 7 7 6 6 7 7 7 7 6 6 5 6 6 6 6 6 7 6 7 6 6 7 6 6 7 8 8 7 7 6 6 5 6 6 6
Wind_Direction
200 196 197 196 199 200 199 199 200 197 196 198 199 198 197 195 194 194 194 188 193 190 186 189 191 193 189 185 183 182 175 169 171 165 169 176 171 187 196 175 196 216 257 278 237 261 284 316 348 315 293 295 273 267 271 256 234 222 219 249 259 276 294
202 197 195 198 202 202 203 203 202 199 197 199 199 200 197 198 196 196 193 189 195 192 192 187 186 190 186 187 179 176 176 172 171 167 168 185 170 187 194 190 177 228 220 257 229 259 306 320 302 294 310 290 293 281 251 263 288 7 345 283 280 274 263
202 198 197 202 204 205 206 205 204 202 200 202 201 200 200 199 198 196 193 194 196 193 188 184 185 188 180 177 173 178 175 165 171 164 168 180 171 182 196 210 187 180 241 259 262 203 233 251 268 267 271 285 301 319 3 341 310 291 292 284 259 259 249
204 196 200 205 207 207 209 207 206 204 205 204 202 203 203 201 201 200 198 197 194 190 187 187 182 185 177 174 168 173 165 152 155 153 154 168 172 137 201 202 284 253 179 239 247 267 205 252 227 270 311 1 332 326 327 320 294 282 265 261 258 255 253
211 204 202 208 209 210 211 210 206 206 207 207 205 205 204 203 203 201 200 198 195 191 187 186 185 180 172 170 166 171 168 160 154 149 142 145 173 150 176 239 304 298 311 277 269 275 282 262 314 297 337 330 329 310 305 290 279 271 269 271 258 245 250
226 211 213 213 213 212 213 211 209 209 208 206 204 205 206 206 204 203 199 198 195 190 186 185 181 178 173 172 170 176 167 164 164 157 159 159 165 157 154 172 256 314 296 289 268 262 276 310 282 314 291 303 319 301 291 291 286 284 277 266 279 272 248
232 231 217 219 213 216 214 214 212 211 209 207 206 205 205 204 203 202 199 198 194 189 183 181 178 176 175 176 172 171 168 166 163 166 170 170 172 161 161 180 188 218 248 250 257 268 253 246 282 254 264 288 291 273 257 254 281 285 286 286 268 276 290
232 238 225 226 220 220 214 214 215 213 210 208 205 204 204 200 199 198 197 193 191 187 183 179 179 178 178 175 171 170 168 165 167 164 171 169 162 173 169 189 199 215 221 235 243 242 243 259 245 271 269 255 241 256 272 257 243 262 260 262 279 235 255
237 244 250 246 232 228 218 215 216 210 208 205 207 200 199 197 197 194 193 191 190 187 180 176 175 178 176 173 165 163 163 167 166 167 172 179 162 178 175 197 199 207 222 237 233 246 238 229 239 234 217 238 240 236 236 245 244 249 257 265 290 297 302
267 251 251 254 261 252 237 229 222 215 211 204 199 197 196 198 199 195 192 190 187 185 181 174 171 174 166 164 160 163 163 165 170 170 168 175 172 180 181 192 198 209 212 213 228 235 219 236 238 218 220 214 226 224 243 253 272 274 278 321 305 290 265
339 318 312 296 273 271 262 251 236 228 219 211 199 194 198 198 198 193 192 191 187 185 178 175 169 168 167 166 164 167 167 167 171 174 172 175 177 178 181 188 198 209 205 211 222 222 222 227 230 231 213 220 219 242 215 232 235 235 252 259 261 275 292
328 327 316 306 295 278 266 260 254 242 234 223 212 198 197 198 196 191 193 190 187 183 174 172 168 169 172 177 177 175 173 173 176 179 183 185 192 195 197 193 193 200 208 209 217 228 225 215 232 219 225 233 231 232 241 233 205 223 205 246 270 269 266
332 319 316 304 291 283 277 274 266 262 251 240 228 210 195 199 194 191 193 188 185 177 173 171 169 171 177 180 172 170 174 175 180 185 190 196 204 210 215 220 220 211 203 208 217 215 226 223 213 233 230 215 214 218 200 237 240 234 250 244 257 257 263
315 309 305 294 285 284 283 275 281 271 263 254 239 226 202 194 192 194 191 187 182 177 176 174 172 173 177 177 175 175 171 175 178 183 195 205 210 212 221 225 231 236 233 222 215 222 229 221 196 225 214 228 209 210 224 210 225 217 236 237 239 241 246
297 286 281 286 285 287 282 275 278 270 263 257 247 242 215 183 184 189 188 186 183 178 174 175 175 179 178 176 177 181 174 176 181 182 195 203 211 212 209 213 221 226 229 236 235 225 226 219 222 229 229 218 217 197 203 193 206 216 224 240 263 272 256
301 289 289 280 282 280 279 279 275 267 263 258 250 245 208 179 177 184 184 183 182 176 176 176 178 178 180 178 180 186 181 182 180 187 197 205 211 214 216 220 217 224 231 230 231 235 233 224 212 230 226 212 205 213 215 216 228 230 241 255 257 255 235
271 271 275 281 277 271 271 277 274 268 264 258 251 247 155 181 181 188 184 184 182 181 181 182 179 179 175 178 181 186 188 191 182 189 199 203 210 211 210 225 221 234 241 244 244 241 238 238 239 242 243 240 233 224 216 224 234 233 224 238 239 246 224
268 264 250 245 259 249 255 270 271 264 264 260 253 246 176 175 184 190 190 187 185 182 183 192 192 187 179 175 180 182 189 194 187 193 200 205 211 213 217 222 208 218 238 249 257 258 254 249 247 250 259 269 271 266 256 220 221 203 177 210 208 236 238
253 261 261 221 226 250 251 261 273 260 259 259 254 248 196 173 178 188 189 181 184 183 182 193 192 194 188 188 185 190 197 202 199 192 195 200 210 219 222 223 205 214 218 230 244 263 282 291 287 287 290 250 265 260 192 160 181 167 157 207 229 241 277
286 269 270 228 191 243 249 247 270 262 255 255 254 248 230 166 180 186 179 178 174 173 184 182 187 195 195 194 193 203 209 212 215 209 212 207 212 218 228 218 211 214 206 214 216 232 235 246 251 257 236 196 172 156 146 151 156 176 179 200 214 220 218
287 283 274 252 212 209 238 228 236 259 256 254 252 249 249 148 185 170 168 172 169 178 171 168 173 166 188 192 195 199 209 217 225 230 225 220 228 227 229 210 203 216 218 216 219 227 228 230 233 217 205 204 185 187 200 183 185 185 186 186 201 219 232
262 263 266 258 225 209 221 232 223 236 253 254 254 253 255 230 180 170 162 166 172 175 169 165 165 157 181 186 197 203 217 228 234 240 245 245 248 249 246 228 208 192 197 206 212 218 218 214 210 206 207 211 209 206 198 193 195 192 194 193 184 194 216
258 259 263 267 248 217 215 219 228 236 240 255 255 257 258 240 180 181 163 165 173 169 164 156 157 168 178 189 202 211 218 227 236 242 245 250 253 257 261 258 234 208 202 205 212 212 214 204 200 202 210 203 211 206 188 191 186 186 180 196 207 191 189
242 236 242 248 257 240 214 209 209 235 242 250 255 260 257 256 205 186 158 170 161 150 155 145 157 166 180 194 202 214 226 234 236 236 245 250 254 258 261 261 260 221 213 212 214 216 210 203 200 200 203 204 195 180 170 157 147 141 140 179 241 278 272
258 261 252 241 238 242 230 205 193 208 237 242 251 257 258 255 333 160 147 128 127 125 146 153 163 168 190 202 214 227 236 240 242 245 249 252 251 261 315 287 270 249 217 215 215 215 208 195 198 191 181 141 129 121 108 107 106 117 215 225 258 273 272
253 251 258 251 240 237 236 205 177 199 216 228 239 248 255 250 145 130 129 132 132 141 152 165 186 197 213 228 235 240 239 215 226 235 239 239 240 197 221 236 251 250 221 214 205 193 192 193 166 120 136 133 128 134 157 149 158 166 266 226 258 311 293
259 249 247 248 245 247 253 198 190 194 202 200 216 226 242 235 199 139 141 135 151 155 167 184 199 210 214 209 236 246 251 252 238 221 227 218 215 195 205 222 223 228 226 225 204 201 194 162 126 120 115 141 141 147 173 157 169 173 223 187 207 199 268
304 287 259 250 245 236 242 234 194 188 187 211 195 211 193 208 190 183 164 156 161 154 163 154 182 206 225 229 234 234 233 237 206 202 198 198 193 205 213 216 226 238 230 220 199 186 123 110 139 147 156 139 139 163 191 177 174 183 214 207 191 277 264
302 305 316 314 290 263 253 244 207 211 197 195 191 188 184 189 196 186 175 177 158 121 113 116 128 140 201 196 202 204 210 219 222 235 206 197 200 202 209 198 184 209 215 198 179 166 151 161 150 161 150 148 151 182 184 186 174 195 175 239 184 224 256
293 299 306 301 298 301 249 243 259 328 198 194 195 199 200 203 195 186 168 175 171 144 135 158 162 190 179 198 184 203 212 216 216 219 224 216 218 206 198 201 202 200 208 185 164 157 151 159 157 159 165 160 177 193 186 188 163 201 175 184 223 237 254
299 295 296 293 289 285 295 297 319 315 278 227 212 209 210 202 197 184 175 172 148 150 154 175 170 202 191 202 202 209 211 211 213 215 208 214 206 200 197 203 200 205 195 184 168 165 159 164 163 174 171 175 184 187 195 192 184 171 182 197 210 226 255
306 298 295 297 294 288 254 270 269 258 265 261 248 226 215 212 207 202 184 175 148 151 184 178 194 202 204 204 208 219 210 208 207 209 201 201 190 209 200 197 209 210 192 189 176 181 178 178 176 177 182 181 184 176 183 178 183 184 201 219 222 230 241
310 309 302 301 303 299 295 272 235 226 234 245 251 252 249 241 235 227 213 189 175 158 194 193 195 205 216 211 215 213 204 211 202 203 206 202 199 195 207 202 211 195 192 188 185 180 185 183 181 180 180 178 175 168 184 187 189 199 197 206 220 244 240
302 311 312 304 294 299 302 316 332 335 312 261 238 240 243 237 237 239 236 208 184 176 191 198 206 210 208 215 214 211 203 205 205 206 210 214 207 195 193 202 196 184 198 191 192 187 191 183 184 175 175 185 182 185 175 184 202 196 203 223 221 233 244
304 298 301 315 321 300 313 319 318 314 311 316 321 295 254 244 231 220 226 228 197 194 193 194 205 211 214 206 211 213 201 203 200 205 210 213 217 201 177 182 177 192 192 192 192 188 191 189 187 187 184 177 179 180 187 202 201 208 206 213 233 232 250
309 314 322 323 311 304 299 303 308 305 306 309 296 287 287 270 237 211 209 206 217 200 205 197 204 204 213 209 211 205 203 198 198 202 202 207 200 210 162 164 177 185 187 197 192 197 197 191 187 185 183 181 181 187 194 195 198 205 214 213 222 228 229